TimeMST,TemperatureF,Dew PointF,Humidity,Sea Level PressureIn,VisibilityMPH,Wind Direction,Wind SpeedMPH,Gust SpeedMPH,PrecipitationIn,Events,Conditions,WindDirDegrees,DateUTC
12:56 AM,-0.0,-8.0,69,30.46,-9999.0,NW,16.1,-,N/A,,Unknown,320,2014-01-05 07:56:00
1:56 AM,-0.0,-8.0,69,30.47,-9999.0,NW,13.8,-,N/A,,Unknown,320,2014-01-05 08:56:00
2:56 AM,-2.0,-9.0,72,30.48,-9999.0,NNW,12.7,-,N/A,,Unknown,330,2014-01-05 09:56:00
3:56 AM,-2.9,-9.9,72,30.49,-9999.0,North,17.3,-,N/A,,Unknown,350,2014-01-05 10:56:00
4:56 AM,-4.0,-11.9,69,30.51,-9999.0,NNW,15.0,-,N/A,,Unknown,340,2014-01-05 11:56:00
5:56 AM,-4.0,-11.9,69,30.54,-9999.0,NW,18.4,-,N/A,,Unknown,320,2014-01-05 12:56:00
6:56 AM,-5.1,-15.0,62,30.56,-9999.0,NW,26.5,33.4,N/A,,Unknown,320,2014-01-05 13:56:00
7:56 AM,-5.1,-13.0,69,30.58,-9999.0,NNW,26.5,34.5,N/A,,Unknown,330,2014-01-05 14:56:00
8:56 AM,-8.0,-17.0,65,30.65,-9999.0,NNW,31.1,38.0,N/A,,Unknown,330,2014-01-05 15:56:00
9:56 AM,-9.9,-25.1,47,30.70,-9999.0,NNW,33.4,44.9,N/A,,Unknown,330,2014-01-05 16:56:00
10:56 AM,-11.9,-25.1,52,30.72,-9999.0,NNW,32.2,40.3,N/A,,Unknown,330,2014-01-05 17:56:00
11:56 AM,-11.9,-25.1,52,30.72,-9999.0,NW,31.1,43.7,N/A,,Unknown,320,2014-01-05 18:56:00
12:56 PM,-11.9,-24.0,55,30.71,-9999.0,NNW,33.4,41.4,N/A,,Unknown,330,2014-01-05 19:56:00
1:56 PM,-11.9,-23.1,58,30.71,-9999.0,NW,32.2,38.0,N/A,,Unknown,320,2014-01-05 20:56:00
2:56 PM,-14.1,-25.1,58,30.71,-9999.0,NW,34.5,40.3,N/A,,Unknown,310,2014-01-05 21:56:00
3:56 PM,-15.0,-25.1,61,30.74,-9999.0,NW,28.8,38.0,N/A,,Unknown,310,2014-01-05 22:56:00
4:56 PM,-16.1,-26.0,61,30.75,-9999.0,NW,27.6,36.8,N/A,,Unknown,310,2014-01-05 23:56:00
5:56 PM,-16.1,-26.0,61,30.75,-9999.0,NW,19.6,-,N/A,,Unknown,310,2014-01-06 00:56:00
6:56 PM,-15.0,-25.1,61,30.73,-9999.0,NW,26.5,34.5,N/A,,Unknown,310,2014-01-06 01:56:00
7:56 PM,-15.0,-25.1,61,30.72,-9999.0,NW,16.1,-,N/A,,Unknown,310,2014-01-06 02:56:00
8:56 PM,-15.0,-24.0,64,30.70,-9999.0,NW,20.7,-,N/A,,Unknown,310,2014-01-06 03:56:00
9:56 PM,-14.1,-23.1,64,30.69,-9999.0,WNW,16.1,-,N/A,,Unknown,300,2014-01-06 04:56:00
10:56 PM,-14.1,-23.1,64,30.68,-9999.0,NW,18.4,-,N/A,,Unknown,310,2014-01-06 05:56:00
11:56 PM,-14.1,-23.1,64,30.65,-9999.0,WNW,18.4,-,N/A,,Unknown,300,2014-01-06 06:56:00